This is the latest recevied weather packets stored in our database for station/object W4SNA-3. If no packets are shown the sender has not sent any weather packets the latest 10 day(s).
| Time | Temp. | Humidity | Pressure | Rain* | Wind** | Luminosity | Snow |
|---|---|---|---|---|---|---|---|
| 1788122665 | 25° C | 78% | 1021.9 hPa | 0 mm | - | - | - |
| 1788122366 | 25.56° C | 77% | 1021.9 hPa | 0 mm | - | - | - |
| 1788121932 | 25.56° C | 78% | 1021.9 hPa | 0 mm | - | - | - |
| 1788121668 | 25.56° C | 76% | 1021.9 hPa | 0 mm | - | - | - |
| 1788121332 | 25.56° C | 76% | 1022 hPa | 0 mm | - | - | - |
| 1788121033 | 26.11° C | 75% | 1022.1 hPa | 0 mm | - | - | - |
| 1788120734 | 26.11° C | 78% | 1022.2 hPa | 0 mm | - | - | - |
| 1788120431 | 26.11° C | 76% | 1022.2 hPa | 0 mm | - | - | - |
| 1788120131 | 26.11° C | 78% | 1022.3 hPa | 0 mm | - | - | - |
| 1788119831 | 26.11° C | 77% | 1022.3 hPa | 0 mm | - | - | - |
| 1788119531 | 26.11° C | 76% | 1022.2 hPa | 0 mm | - | - | - |
| 1788119251 | 26.11° C | 76% | 1022.4 hPa | 0 mm | - | - | - |
| 1788118931 | 26.11° C | 76% | 1022.4 hPa | 0 mm | - | - | - |
| 1788118631 | 26.11° C | 76% | 1022.4 hPa | 0 mm | - | - | - |
| 1788118336 | 26.11° C | 78% | 1022.4 hPa | 0 mm | - | - | - |
| 1788117730 | 26.11° C | 77% | 1022.7 hPa | 0 mm | - | - | - |
| 1788117431 | 26.11° C | 75% | 1022.7 hPa | 0 mm | - | - | - |
| 1788117131 | 26.11° C | 79% | 1022.8 hPa | 0 mm | - | - | - |
| 1788116830 | 26.11° C | 78% | 1022.9 hPa | 0 mm | - | - | - |
| 1788116531 | 26.11° C | 76% | 1022.9 hPa | 0 mm | - | - | - |
| 1788116242 | 26.11° C | 76% | 1022.9 hPa | 0 mm | - | - | - |
| 1788115930 | 26.11° C | 78% | 1023 hPa | 0 mm | - | - | - |
| 1788115630 | 26.11° C | 79% | 1023.1 hPa | 0 mm | - | - | - |
| 1788115332 | 26.11° C | 78% | 1023.1 hPa | 0 mm | - | - | - |
| 1788115030 | 26.11° C | 79% | 1023.1 hPa | 0 mm | - | - | - |
* Rain latest hour (hover to see other rain measurements)
** Current wind speed in m/s (hover to see current wind gust speed)